Weather Service Report


188 
ASUS46 KPQR 201310
RWROR 

OREGON REGIONAL WEATHER ROUNDUP
NATIONAL WEATHER SERVICE PORTLAND OR
600 AM PDT MON OCT 20 2014

NOTE: "FAIR" INDICATES FEW OR NO CLOUDS BELOW 12,000 FEET WITH
NO SIGNIFICANT WEATHER AND/OR OBSTRUCTIONS TO VISIBILITY.

ORZ001>013-201400-
NORTHWEST OREGON

  
CITY           SKY/WX    TMP DP  RH WIND       PRES   REMARKS
ASTORIA        CLOUDY    56  52  86 S7        29.70S                  
NEWPORT        PTCLDY    55  54  94 S8        29.77R                  
PORTLAND       LGT RAIN  60  57  89 S8        29.76R                  
VANCOUVER WA   CLOUDY    61  55  81 S3        29.75R                  
SCAPPOOSE      LGT RAIN  59  56  89 S3        29.74R                  
HILLSBORO      LGT RAIN  58  57  97 SE8       29.73S                  
AURORA         LGT RAIN  58  56  93 SE8       29.76R                  
MCMINNVILLE    CLOUDY    58  56  93 S5        29.75S                  
SALEM          LGT RAIN  58  56  93 S9        29.75S                  
CORVALLIS      CLOUDY    59  55  88 S3        29.76F                  
EUGENE         LGT RAIN  58  56  93 SE6       29.77S                  
$$

ORZ021-028-201400-
SOUTHWEST OREGON

  
CITY           SKY/WX    TMP DP  RH WIND       PRES   REMARKS
NORTH BEND     CLOUDY    57  57 100 S3        29.78R                  
BROOKINGS      LGT RAIN  55  55 100 VRB6      29.82F FOG              
ROSEBURG       RAIN      58  55  90 CALM      29.78S FOG              
SEXTON SUMMIT  LGT RAIN  46  46 100 SW12      29.82R VSB 3/4          
MEDFORD        LGT RAIN  55  54  96 CALM      29.79R                  
$$

ORZ009-041-201400-
COLUMBIA GORGE

  
CITY           SKY/WX    TMP DP  RH WIND       PRES   REMARKS
TROUTDALE      LGT RAIN  60  56  86 S5        29.75R                  
THE DALLES     MOCLDY    54  50  86 NE5       29.73S                  
$$

ORZ029>031-042>050-061>064-201400-
EASTERN OREGON

  
CITY           SKY/WX    TMP DP  RH WIND       PRES   REMARKS
REDMOND        PTCLDY    49  38  65 S9        29.78S                  
BEND           MOSUNNY   50  39  66 S6        29.81S                  
KLAMATH FALLS  PTCLDY    51  42  71 S14       29.85R                  
LAKEVIEW       CLEAR     37  25  60 S8        29.93S WCI  31          
HERMISTON      CLEAR     43  40  89 S5        29.73S                  
PENDLETON      CLEAR     44  41  89 N3        29.73S                  
JOHN DAY       SUNNY     60  33  36 S12       29.85R                  
MEACHAM        CLEAR     33  28  81 CALM      29.82S                  
LA GRANDE      CLEAR     59  28  31 SE9       29.80R                  
BAKER CITY     CLEAR     43  31  62 SE10      29.84F                  
BURNS          PTCLDY    28  19  69 CALM      29.91S                  
ROME             N/A     40  22  48 SW3       29.91R                  
ONTARIO        CLEAR     37  30  75 W3        29.88S                  
$$

Return to Home page


Western Regional Climate Center, wrcc@dri.edu